CW3111 Weather Reports


time (UTC)temp
C
wind
direction
speed
KPH
gust
KPH
rain 1hr
cm
rain 24hr
cm
rain mn
cm
humidity
%
barometer
mb
20260506151216 12 219 0.0 0.0 0.00 0.00 0.00 93 1023.7
20260506150216 11 219 0.0 0.0 0.00 0.00 0.00 93 1023.7
20260506145216 11 219 0.0 0.0 0.00 0.00 0.00 94 1023.9
20260506144216 11 184 0.0 0.0 0.00 0.00 0.00 94 1023.8
20260506143216 11 184 0.0 0.0 0.00 0.00 0.00 94 1023.8
20260506142216 11 163 0.0 0.0 0.00 0.00 0.00 94 1023.5
20260506140216 11 150 0.0 0.0 0.00 0.00 0.00 94 1023.3
20260506135216 10 165 0.0 0.0 0.00 0.00 0.00 94 1023.4
20260506134216 10 165 0.0 0.0 0.00 0.00 0.00 94 1023.3
20260506131216 10 222 0.0 0.0 0.00 0.00 0.00 94 1023.2
20260506130216 10 222 0.0 0.0 0.00 0.00 0.00 93 1023.1
20260506125216 10 222 0.0 0.0 0.00 0.00 0.00 93 1023.0
20260506124216 10 222 0.0 0.0 0.00 0.00 0.00 93 1022.8
20260506123216 10 222 0.0 0.0 0.00 0.00 0.00 94 1022.8
20260506122216 10 222 0.0 0.0 0.00 0.00 0.00 94 1022.7
20260506121216 10 222 0.0 0.0 0.00 0.00 0.00 94 1022.7
20260506120216 10 222 0.0 0.0 0.00 0.00 0.00 94 1022.5
20260506114216 10 222 0.0 0.0 0.00 0.00 0.00 93 1022.4
20260506111216 9 222 0.0 0.0 0.00 0.00 0.00 93 1022.1
20260506110216 9 222 0.0 0.0 0.00 0.00 0.00 92 1022.0
20260506105216 9 222 0.0 0.0 0.00 0.00 0.00 92 1022.1
20260506104216 9 222 0.0 0.0 0.00 0.00 0.00 92 1022.0
20260506103216 9 222 0.0 0.0 0.00 0.00 0.00 91 1021.7
20260506102216 9 222 0.0 0.0 0.00 0.00 0.00 91 1021.7
20260506101216 9 222 0.0 0.0 0.00 0.00 0.00 91 1021.6
20260506100216 10 222 0.0 0.0 0.00 0.00 0.00 91 1021.7
20260506095216 10 222 0.0 0.0 0.00 0.00 0.00 90 1021.3
20260506094216 10 222 0.0 0.0 0.00 0.00 0.00 90 1021.3
20260506093216 10 222 0.0 0.0 0.00 0.00 0.00 90 1021.2
20260506092216 10 222 0.0 0.0 0.00 0.00 0.00 89 1021.3
20260506091216 10 222 0.0 0.0 0.00 0.00 0.00 90 1021.2
20260506090216 11 222 0.0 0.0 0.00 0.00 0.00 90 1021.3
20260506085216 11 222 0.0 0.0 0.00 0.00 0.00 90 1021.1
20260506084216 11 222 0.0 0.0 0.00 0.00 0.00 89 1021.1
20260506083216 11 222 0.0 0.0 0.00 0.00 0.00 89 1021.1
20260506082216 11 222 0.0 0.0 0.00 0.00 0.00 89 1021.0
20260506081216 12 222 0.0 1.6 0.00 0.00 0.00 89 1021.0
20260506080216 12 222 0.0 4.8 0.00 0.00 0.00 88 1021.1
20260506073216 12 222 0.0 6.4 0.00 0.00 0.00 87 1020.4
20260506071216 12 223 0.0 11.3 0.00 0.00 0.00 87 1020.1
20260506070216 12 223 0.0 8.0 0.00 0.00 0.00 86 1020.1
20260506062216 13 223 0.0 6.4 0.00 0.00 0.00 85 1019.5
20260506061216 13 223 0.0 9.7 0.00 0.00 0.00 84 1019.4
20260506060215 13 223 3.2 8.0 0.00 0.00 0.00 84 1019.4
20260506051216 14 217 0.0 9.7 0.00 0.00 0.00 81 1018.7
20260506050215 15 217 0.0 8.0 0.00 0.00 0.00 81 1018.8
20260506043215 15 217 0.0 8.0 0.00 0.00 0.00 79 1018.3
20260506042215 15 218 0.0 6.4 0.00 0.00 0.00 79 1018.0
20260506041215 16 219 0.0 9.7 0.00 0.00 0.00 78 1018.1
20260506040216 16 219 4.8 11.3 0.00 0.00 0.00 77 1017.8
20260506035215 16 218 0.0 8.0 0.00 0.00 0.00 76 1017.6
20260506034215 16 217 0.0 3.2 0.00 0.00 0.00 76 1017.3
20260506033216 17 217 0.0 9.7 0.00 0.00 0.00 75 1017.2
20260506032216 17 217 1.6 11.3 0.00 0.00 0.00 74 1017.1
20260506031215 17 217 0.0 6.4 0.00 0.00 0.00 74 1017.0
20260506030216 18 217 0.0 9.7 0.00 0.00 0.00 72 1017.0
20260506025216 18 217 0.0 8.0 0.00 0.00 0.00 71 1016.9
20260506024215 19 217 0.0 8.0 0.00 0.00 0.00 70 1016.7
20260506022215 20 218 3.2 8.0 0.00 0.00 0.00 67 1016.4
20260506021216 21 218 0.0 4.8 0.00 0.00 0.00 67 1016.4
20260506020215 21 218 0.0 1.6 0.00 0.00 0.00 66 1016.2
20260506015216 21 218 0.0 0.0 0.00 0.00 0.00 66 1016.0
20260506014215 21 218 0.0 8.0 0.00 0.00 0.00 65 1015.9
20260506013215 21 218 0.0 4.8 0.00 0.00 0.00 65 1016.0
20260506012216 21 218 0.0 9.7 0.00 0.00 0.00 65 1016.0
20260506011215 21 217 0.0 11.3 0.00 0.00 0.00 65 1015.9
20260506010215 22 223 0.0 8.0 0.00 0.00 0.00 64 1015.9
20260506005216 22 223 0.0 9.7 0.00 0.00 0.00 65 1015.8
20260506004216 22 225 0.0 9.7 0.00 0.00 0.00 63 1015.8
20260506003215 22 230 0.0 3.2 0.00 0.00 0.00 64 1015.8
20260506002216 22 230 0.0 12.9 0.00 0.00 0.00 63 1015.8
20260506001216 22 230 3.2 9.7 0.00 0.00 0.00 64 1015.9
20260506000215 22 231 6.4 16.1 0.00 0.00 0.00 65 1015.9
20260505235216 22 225 4.8 11.3 0.00 0.00 0.00 64 1015.9
20260505234215 22 225 3.2 12.9 0.00 0.00 0.00 62 1015.9
20260505233215 23 228 0.0 14.5 0.00 0.00 0.00 62 1015.8
20260505232215 23 228 0.0 14.5 0.00 0.00 0.00 60 1016.0
20260505231215 23 228 4.8 17.7 0.00 0.00 0.00 60 1016.0
20260505230215 24 31 0.0 6.4 0.00 0.00 0.00 57 1016.1
20260505225215 23 32 1.6 6.4 0.00 0.00 0.00 60 1016.1
20260505224215 22 32 0.0 4.8 0.00 0.00 0.00 60 1016.2
20260505222215 22 32 0.0 4.8 0.00 0.00 0.00 61 1016.3
20260505221216 22 32 3.2 8.0 0.00 0.00 0.00 63 1016.4
20260505220216 22 32 0.0 9.7 0.00 0.00 0.00 61 1016.5
20260505213215 21 71 0.0 8.0 0.00 0.00 0.00 62 1016.7
20260505212215 21 78 0.0 8.0 0.00 0.00 0.00 62 1016.8
20260505210215 21 69 0.0 9.7 0.00 0.00 0.00 65 1016.9
20260505203215 20 360 0.0 6.4 0.00 0.00 0.00 66 1017.1
20260505202215 20 348 6.4 11.3 0.00 0.00 0.00 65 1017.1
20260505201215 20 355 0.0 11.3 0.00 0.00 0.00 68 1017.1
20260505195216 18 11 0.0 8.0 0.00 0.00 0.00 69 1017.4
20260505194215 18 9 8.0 12.9 0.00 0.00 0.00 70 1017.5
20260505193215 18 64 3.2 6.4 0.00 0.00 0.00 72 1017.5
20260505192215 18 65 6.4 6.4 0.00 0.00 0.00 73 1017.5
20260505191215 17 65 0.0 6.4 0.00 0.00 0.00 71 1017.5
20260505190215 17 65 3.2 8.0 0.00 0.00 0.00 73 1017.6
20260505185215 17 80 4.8 11.3 0.00 0.00 0.00 72 1017.7
20260505184215 17 228 3.2 6.4 0.00 0.00 0.00 71 1017.7
20260505183215 17 232 0.0 1.6 0.00 0.00 0.00 71 1017.8
20260505181216 17 234 0.0 6.4 0.00 0.00 0.00 70 1017.8
20260505180215 16 235 0.0 8.0 0.00 0.00 0.00 76 1017.5
20260505175215 16 223 0.0 6.4 0.00 0.00 0.00 74 1017.7
20260505174215 15 216 0.0 0.0 0.00 0.00 0.00 76 1017.7
20260505173216 15 216 0.0 0.0 0.00 0.00 0.00 77 1017.6
20260505172215 14 216 0.0 0.0 0.00 0.00 0.00 77 1017.7
20260505171215 14 216 0.0 3.2 0.00 0.00 0.00 78 1017.7
20260505170215 15 217 1.6 4.8 0.00 0.00 0.00 78 1017.8
20260505165215 15 239 0.0 3.2 0.00 0.00 0.00 78 1017.8
20260505164215 14 238 0.0 0.0 0.00 0.00 0.00 79 1017.7
20260505163215 13 238 0.0 4.8 0.00 0.00 0.00 80 1017.6
20260505162215 13 238 0.0 0.0 0.00 0.00 0.00 80 1017.8
20260505161215 13 238 0.0 0.0 0.00 0.00 0.00 82 1017.8
20260505160215 13 238 0.0 0.0 0.00 0.00 0.00 82 1017.8
20260505153215 12 237 0.0 0.0 0.00 0.00 0.00 85 1017.7
20260505152215 12 237 0.0 6.4 0.00 0.00 0.00 85 1017.7